Location: Ferintosh
(52.7647°N, 112.9692°W)
Time: 14:14:08
(UTC+00:00)

Transit 2A - Pass Details

Date: 20 May 2024
Orbit: 592 x 959 km, 66.7° (Epoch: 23 June)

Event Time Altitude Azimuth Distance (km) Brightness Sun altitude
Rises 09:22:04 0° 268° (W) 3,039 8.8 -13.1°
Reaches altitude 10° 09:24:41 10° 282° (WNW) 2,185 8.2 -12.9°
Maximum altitude 09:28:48 25° 338° (NNW) 1,497 8.0 -12.6°
Drops below altitude 10° 09:33:16 10° 33° (NNE) 2,395 10.1 -12.2°
Sets 09:36:17 0° 46° (NE) 3,399 11.0 -12.0°
